Location: *
(58.7167°N, 26.1833°E)
Time: 23:10:15
(UTC+00:00)

NOSS 2-1 (D) - Pass Details

Date: 25 August 2019
Orbit: 462 x 1741 km, 63.3° (Epoch: 13 September)

Event Time Altitude Azimuth Distance (km) Brightness Sun altitude
Exits shadow 21:56:54 69° 175° (S) 567 3.1 -20.5°
Maximum altitude 21:57:08 72° 143° (SE) 562 3.1 -20.6°
Drops below altitude 10° 22:01:29 10° 60° (ENE) 2,015 6.5 -20.6°
Sets 22:04:05 0° 58° (ENE) 3,102 7.5 -20.6°
